sat.trackr.live / text

‹ back to catalog

STARLINK-34166

NORAD 64158 · 2025-112N

PAYLOAD ACTIVE UNKNOWN

§ Identity

Operator
Country
US
Launch date
2025-05-27
Launch site
AFWTR
Launch vehicle
Mass (kg)
RCS (m²)

Purposes: comms

External: N2YO · Heavens-Above · Gunter

§ Orbital elements

Epoch: 2026-05-25T02:46:08.736096Z

Period
95.64 min
Inclination
97.4509°
Eccentricity
0.0001952
Mean motion
15.05648181 rev/d
Perigee alt
548.2 km
Apogee alt
550.9 km
Semi-major
6,927.7 km
B*
1.4782e-4
RAAN
196.4184°
Arg perigee
69.7468°
Mean anomaly
290.3968°
Rev number
5,480

§ Raw data

STARLINK-341661 64158U 25112N   26145.11537889  .00002075  00000+0  14782-3 0  99932 64158  97.4509 196.4184 0001952  69.7468 290.3968 15.05648181 54803

JSON: /api/v1/satellites/64158 · /tle

For live sub-satellite position, see the globe view (requires WebGL).

§ Visibility from observer

Set your observer location to see the next 7 days of passes ≥ 10°. The values pass through the URL so the page stays shareable.

No JS? Fill the form by hand. The geolocation button needs JavaScript.